Time,TemperatureF,DewpointF,PressureIn,WindDirection,WindDirectionDegrees,WindSpeedMPH,WindSpeedGustMPH,Humidity,HourlyPrecipIn,Conditions,Clouds,dailyrainin,SoftwareType,DateUTC
2013-11-13 00:00:00,29.4,28.7,30.45,SSW,210,7.0,11.0,97,0.00,,,0.00,VWS V14.01,2013-11-13 06:00:00,
2013-11-13 00:01:00,29.4,28.4,30.46,SW,219,7.0,11.0,96,0.00,,,0.00,VWS V14.01,2013-11-13 06:01:00,
2013-11-13 00:06:00,29.4,28.4,30.45,SW,220,10.0,12.0,96,0.00,,,0.00,VWS V14.01,2013-11-13 06:06:00,
2013-11-13 00:11:00,29.4,28.9,30.45,SW,215,9.0,12.0,98,0.00,,,0.00,VWS V14.01,2013-11-13 06:11:00,
2013-11-13 00:15:00,29.4,29.4,30.44,SSW,209,10.0,12.0,100,0.00,,,0.00,VWS V14.01,2013-11-13 06:15:00,
2013-11-13 00:16:00,29.4,29.4,30.45,SW,217,10.0,12.0,100,0.00,,,0.00,VWS V14.01,2013-11-13 06:16:00,
2013-11-13 00:21:00,29.4,29.4,30.44,SSW,209,7.0,12.0,100,0.00,,,0.00,VWS V14.01,2013-11-13 06:21:00,
2013-11-13 00:26:00,29.3,29.3,30.44,SW,215,9.0,12.0,100,0.00,,,0.00,VWS V14.01,2013-11-13 06:26:00,
2013-11-13 00:30:00,29.3,29.3,30.44,SSW,212,8.0,12.0,100,0.00,,,0.00,VWS V14.01,2013-11-13 06:30:00,
2013-11-13 00:31:00,29.3,29.3,30.44,SSW,212,7.0,12.0,100,0.00,,,0.00,VWS V14.01,2013-11-13 06:31:00,
2013-11-13 00:36:00,29.3,29.3,30.44,SSW,212,9.0,10.0,100,0.00,,,0.00,VWS V14.01,2013-11-13 06:36:00,
2013-11-13 00:41:00,29.1,29.1,30.44,SW,217,10.0,12.0,100,0.00,,,0.00,VWS V14.01,2013-11-13 06:41:00,
2013-11-13 00:45:00,29.1,29.1,30.43,SW,216,6.0,12.0,100,0.00,,,0.00,VWS V14.01,2013-11-13 06:45:00,
2013-11-13 00:46:00,29.1,29.1,30.44,SW,219,6.0,12.0,100,0.00,,,0.00,VWS V14.01,2013-11-13 06:46:00,
2013-11-13 00:51:00,29.1,29.1,30.43,SW,226,7.0,10.0,100,0.00,,,0.00,VWS V14.01,2013-11-13 06:51:00,
2013-11-13 00:56:00,29.1,29.1,30.43,SW,223,7.0,10.0,100,0.00,,,0.00,VWS V14.01,2013-11-13 06:56:00,
2013-11-13 01:00:00,29.1,29.1,30.42,SW,215,7.0,11.0,100,0.00,,,0.00,VWS V14.01,2013-11-13 07:00:00,
2013-11-13 01:01:00,29.1,29.1,30.43,SW,216,7.0,11.0,100,0.00,,,0.00,VWS V14.01,2013-11-13 07:01:00,
2013-11-13 01:06:00,29.1,29.1,30.42,SSW,205,7.0,10.0,100,0.00,,,0.00,VWS V14.01,2013-11-13 07:06:00,
2013-11-13 01:11:00,29.0,29.0,30.42,SSW,202,7.0,10.0,100,0.00,,,0.00,VWS V14.01,2013-11-13 07:11:00,
2013-11-13 01:15:00,29.1,29.1,30.40,SW,219,8.0,10.0,100,0.00,,,0.00,VWS V14.01,2013-11-13 07:15:00,
2013-11-13 01:16:00,29.0,29.0,30.42,SSW,196,9.0,10.0,100,0.00,,,0.00,VWS V14.01,2013-11-13 07:16:00,
2013-11-13 01:21:00,29.3,29.3,30.40,SSW,208,10.0,11.0,100,0.00,,,0.00,VWS V14.01,2013-11-13 07:21:00,
2013-11-13 01:26:00,29.4,29.4,30.40,SSW,200,10.0,12.0,100,0.00,,,0.00,VWS V14.01,2013-11-13 07:26:00,
2013-11-13 01:30:00,29.5,29.5,30.40,SSW,200,8.0,12.0,100,0.00,,,0.00,VWS V14.01,2013-11-13 07:30:00,
2013-11-13 01:31:00,29.5,29.5,30.40,SSW,193,10.0,12.0,100,0.00,,,0.00,VWS V14.01,2013-11-13 07:31:00,
2013-11-13 01:36:00,29.5,29.5,30.40,SSW,208,6.0,11.0,100,0.00,,,0.00,VWS V14.01,2013-11-13 07:36:00,
2013-11-13 01:41:00,29.5,29.5,30.40,SSW,208,6.0,11.0,100,0.00,,,0.00,VWS V14.01,2013-11-13 07:41:00,
2013-11-13 01:45:00,29.4,29.4,30.39,SSW,203,6.0,11.0,100,0.00,,,0.00,VWS V14.01,2013-11-13 07:45:00,
2013-11-13 01:46:00,29.4,29.4,30.40,SSW,200,7.0,11.0,100,0.00,,,0.00,VWS V14.01,2013-11-13 07:46:00,
2013-11-13 01:51:00,29.4,29.4,30.39,SSW,203,7.0,8.0,100,0.00,,,0.00,VWS V14.01,2013-11-13 07:51:00,
2013-11-13 01:56:00,29.4,29.4,30.39,SSW,202,6.0,9.0,100,0.00,,,0.00,VWS V14.01,2013-11-13 07:56:00,
2013-11-13 02:00:00,29.4,29.4,30.38,SSW,203,7.0,10.0,100,0.00,,,0.00,VWS V14.01,2013-11-13 08:00:00,
2013-11-13 02:01:00,29.4,29.4,30.39,SSW,203,10.0,10.0,100,0.00,,,0.00,VWS V14.01,2013-11-13 08:01:00,
2013-11-13 02:06:00,29.4,29.4,30.38,SSW,208,7.0,11.0,100,0.00,,,0.00,VWS V14.01,2013-11-13 08:06:00,
2013-11-13 02:11:00,29.5,29.5,30.38,SSW,208,9.0,11.0,100,0.00,,,0.00,VWS V14.01,2013-11-13 08:11:00,
2013-11-13 02:15:00,29.5,29.5,30.37,SSW,203,11.0,12.0,100,0.00,,,0.00,VWS V14.01,2013-11-13 08:15:00,
2013-11-13 02:16:00,29.5,29.5,30.38,SSW,195,10.0,12.0,100,0.00,,,0.00,VWS V14.01,2013-11-13 08:16:00,
2013-11-13 02:21:00,29.5,29.5,30.37,SSW,203,8.0,12.0,100,0.00,,,0.00,VWS V14.01,2013-11-13 08:21:00,
2013-11-13 02:26:00,29.3,29.3,30.37,SSW,193,7.0,12.0,100,0.00,,,0.00,VWS V14.01,2013-11-13 08:26:00,
2013-11-13 02:30:00,29.3,29.3,30.36,SSW,202,7.0,12.0,100,0.00,,,0.00,VWS V14.01,2013-11-13 08:30:00,
2013-11-13 02:31:00,29.3,29.3,30.37,SSW,206,7.0,12.0,100,0.00,,,0.00,VWS V14.01,2013-11-13 08:31:00,
2013-11-13 02:36:00,29.3,29.3,30.36,SW,216,8.0,10.0,100,0.00,,,0.00,VWS V14.01,2013-11-13 08:36:00,
2013-11-13 02:41:00,29.1,29.1,30.36,SSW,205,7.0,12.0,100,0.00,,,0.00,VWS V14.01,2013-11-13 08:41:00,
2013-11-13 02:45:00,29.0,29.0,30.36,SSW,205,9.0,12.0,100,0.00,,,0.00,VWS V14.01,2013-11-13 08:45:00,
2013-11-13 02:46:00,29.0,29.0,30.36,SSW,199,10.0,12.0,100,0.00,,,0.00,VWS V14.01,2013-11-13 08:46:00,
2013-11-13 02:51:00,28.8,28.8,30.36,SSW,198,7.0,12.0,100,0.00,,,0.00,VWS V14.01,2013-11-13 08:51:00,
2013-11-13 02:56:00,28.7,28.7,30.36,SSW,203,10.0,12.0,100,0.00,,,0.00,VWS V14.01,2013-11-13 08:56:00,
2013-11-13 03:00:00,28.7,28.7,30.35,SSW,199,7.0,12.0,100,0.00,,,0.00,VWS V14.01,2013-11-13 09:00:00,
2013-11-13 03:01:00,28.7,28.7,30.36,SSW,199,7.0,12.0,100,0.00,,,0.00,VWS V14.01,2013-11-13 09:01:00,
2013-11-13 03:06:00,28.7,28.7,30.35,SSW,205,7.0,10.0,100,0.00,,,0.00,VWS V14.01,2013-11-13 09:06:00,
2013-11-13 03:11:00,28.5,28.5,30.35,SW,215,6.0,10.0,100,0.00,,,0.00,VWS V14.01,2013-11-13 09:11:00,
2013-11-13 03:15:00,28.4,28.4,30.35,SW,216,7.0,10.0,100,0.00,,,0.00,VWS V14.01,2013-11-13 09:15:00,
2013-11-13 03:16:00,28.4,28.4,30.35,SW,216,6.0,10.0,100,0.00,,,0.00,VWS V14.01,2013-11-13 09:16:00,
2013-11-13 03:27:00,28.7,28.7,30.35,SW,217,8.0,8.0,100,0.00,,,0.00,VWS V14.01,2013-11-13 09:27:00,
2013-11-13 03:32:00,28.7,28.7,30.34,SSW,208,8.0,12.0,100,0.00,,,0.00,VWS V14.01,2013-11-13 09:32:00,
2013-11-13 03:37:00,28.7,28.7,30.34,SSW,206,8.0,10.0,100,0.00,,,0.00,VWS V14.01,2013-11-13 09:37:00,
2013-11-13 03:42:00,28.7,28.7,30.34,SSW,200,7.0,11.0,100,0.00,,,0.00,VWS V14.01,2013-11-13 09:42:00,
2013-11-13 03:47:00,28.5,28.5,30.33,SSW,192,6.0,11.0,100,0.00,,,0.00,VWS V14.01,2013-11-13 09:47:00,
2013-11-13 03:52:00,28.5,28.5,30.33,SSW,209,7.0,8.0,100,0.00,,,0.00,VWS V14.01,2013-11-13 09:52:00,
2013-11-13 03:57:00,28.5,28.5,30.33,SSW,213,7.0,8.0,100,0.00,,,0.00,VWS V14.01,2013-11-13 09:57:00,
2013-11-13 04:02:00,28.5,28.5,30.32,SSW,193,7.0,10.0,100,0.00,,,0.00,VWS V14.01,2013-11-13 10:02:00,
2013-11-13 04:07:00,28.5,28.5,30.32,SSW,198,6.0,10.0,100,0.00,,,0.00,VWS V14.01,2013-11-13 10:07:00,
2013-11-13 04:12:00,28.5,28.5,30.32,SSW,199,3.0,10.0,100,0.00,,,0.00,VWS V14.01,2013-11-13 10:12:00,
2013-11-13 04:17:00,28.5,28.5,30.32,South,185,5.0,10.0,100,0.00,,,0.00,VWS V14.01,2013-11-13 10:17:00,
2013-11-13 04:22:00,28.5,28.5,30.32,SSW,199,7.0,8.0,100,0.00,,,0.00,VWS V14.01,2013-11-13 10:22:00,
2013-11-13 04:27:00,28.5,28.5,30.32,SSW,209,7.0,10.0,100,0.00,,,0.00,VWS V14.01,2013-11-13 10:27:00,
2013-11-13 04:32:00,28.5,28.5,30.31,SSW,200,7.0,10.0,100,0.00,,,0.00,VWS V14.01,2013-11-13 10:32:00,
2013-11-13 04:37:00,28.5,28.5,30.31,SSW,208,6.0,8.0,100,0.00,,,0.00,VWS V14.01,2013-11-13 10:37:00,
2013-11-13 04:42:00,28.5,28.5,30.31,SSW,210,7.0,8.0,100,0.00,,,0.00,VWS V14.01,2013-11-13 10:42:00,
2013-11-13 04:47:00,28.4,28.4,30.30,SSW,212,8.0,9.0,100,0.00,,,0.00,VWS V14.01,2013-11-13 10:47:00,
2013-11-13 04:52:00,28.4,28.4,30.30,SW,220,7.0,10.0,100,0.00,,,0.00,VWS V14.01,2013-11-13 10:52:00,
2013-11-13 04:57:00,28.4,28.4,30.30,SW,216,8.0,10.0,100,0.00,,,0.00,VWS V14.01,2013-11-13 10:57:00,
2013-11-13 05:02:00,28.2,28.2,30.30,SW,224,7.0,10.0,100,0.00,,,0.00,VWS V14.01,2013-11-13 11:02:00,
2013-11-13 05:07:00,28.1,28.1,30.30,SW,220,7.0,10.0,100,0.00,,,0.00,VWS V14.01,2013-11-13 11:07:00,
2013-11-13 05:12:00,28.1,28.1,30.30,SSW,213,7.0,10.0,100,0.00,,,0.00,VWS V14.01,2013-11-13 11:12:00,
2013-11-13 05:17:00,28.1,28.1,30.31,SW,219,7.0,10.0,100,0.00,,,0.00,VWS V14.01,2013-11-13 11:17:00,
2013-11-13 05:22:00,27.9,27.9,30.31,SW,219,7.0,8.0,100,0.00,,,0.00,VWS V14.01,2013-11-13 11:22:00,
2013-11-13 05:27:00,27.8,27.8,30.31,SW,222,10.0,10.0,100,0.00,,,0.00,VWS V14.01,2013-11-13 11:27:00,
2013-11-13 05:32:00,27.8,27.8,30.30,SW,216,7.0,10.0,100,0.00,,,0.00,VWS V14.01,2013-11-13 11:32:00,
2013-11-13 05:37:00,27.9,27.9,30.30,SSW,196,7.0,10.0,100,0.00,,,0.00,VWS V14.01,2013-11-13 11:37:00,
2013-11-13 05:42:00,28.1,28.1,30.30,SSW,199,6.0,11.0,100,0.00,,,0.00,VWS V14.01,2013-11-13 11:42:00,
2013-11-13 05:47:00,28.2,28.2,30.29,SSW,210,7.0,12.0,100,0.00,,,0.00,VWS V14.01,2013-11-13 11:47:00,
2013-11-13 05:52:00,28.2,28.2,30.29,SSW,212,6.0,11.0,100,0.00,,,0.00,VWS V14.01,2013-11-13 11:52:00,
2013-11-13 05:57:00,28.2,28.2,30.29,SSW,212,7.0,11.0,100,0.00,,,0.00,VWS V14.01,2013-11-13 11:57:00,
2013-11-13 06:02:00,28.2,28.2,30.29,SW,215,5.0,11.0,100,0.00,,,0.00,VWS V14.01,2013-11-13 12:02:00,
2013-11-13 06:07:00,28.2,28.2,30.29,SW,216,6.0,8.0,100,0.00,,,0.00,VWS V14.01,2013-11-13 12:07:00,
2013-11-13 06:12:00,28.2,28.2,30.29,SSW,206,5.0,8.0,100,0.00,,,0.00,VWS V14.01,2013-11-13 12:12:00,
2013-11-13 06:17:00,28.1,28.1,30.28,SW,220,5.0,8.0,100,0.00,,,0.00,VWS V14.01,2013-11-13 12:17:00,
2013-11-13 06:22:00,28.1,28.1,30.28,SW,220,6.0,7.0,100,0.00,,,0.00,VWS V14.01,2013-11-13 12:22:00,
2013-11-13 06:27:00,27.9,27.9,30.28,SW,215,7.0,8.0,100,0.00,,,0.00,VWS V14.01,2013-11-13 12:27:00,
2013-11-13 06:32:00,27.6,27.6,30.28,SW,216,7.0,10.0,100,0.00,,,0.00,VWS V14.01,2013-11-13 12:32:00,
2013-11-13 06:37:00,27.5,27.5,30.28,SW,215,5.0,9.0,100,0.00,,,0.00,VWS V14.01,2013-11-13 12:37:00,
2013-11-13 06:42:00,27.3,27.3,30.28,SSW,213,5.0,9.0,100,0.00,,,0.00,VWS V14.01,2013-11-13 12:42:00,
2013-11-13 06:47:00,27.3,27.3,30.29,SSW,202,5.0,9.0,100,0.00,,,0.00,VWS V14.01,2013-11-13 12:47:00,
2013-11-13 06:52:00,27.3,27.3,30.29,SSW,198,8.0,11.0,100,0.00,,,0.00,VWS V14.01,2013-11-13 12:52:00,
2013-11-13 06:57:00,27.3,27.3,30.29,SSW,206,5.0,11.0,100,0.00,,,0.00,VWS V14.01,2013-11-13 12:57:00,
2013-11-13 07:02:00,27.2,27.2,30.28,SSW,206,5.0,11.0,100,0.00,,,0.00,VWS V14.01,2013-11-13 13:02:00,
2013-11-13 07:07:00,27.2,27.2,30.28,SSW,213,7.0,7.0,100,0.00,,,0.00,VWS V14.01,2013-11-13 13:07:00,
2013-11-13 07:12:00,27.3,27.3,30.28,SW,215,7.0,8.0,100,0.00,,,0.00,VWS V14.01,2013-11-13 13:12:00,
2013-11-13 07:17:00,27.3,27.3,30.28,SSW,210,7.0,10.0,100,0.00,,,0.00,VWS V14.01,2013-11-13 13:17:00,
2013-11-13 07:22:00,27.3,27.3,30.28,SSW,199,10.0,12.0,100,0.00,,,0.00,VWS V14.01,2013-11-13 13:22:00,
2013-11-13 07:27:00,27.3,27.3,30.28,SSW,206,9.0,12.0,100,0.00,,,0.00,VWS V14.01,2013-11-13 13:27:00,
2013-11-13 07:32:00,27.3,27.3,30.27,SSW,199,10.0,12.0,100,0.00,,,0.00,VWS V14.01,2013-11-13 13:32:00,
2013-11-13 07:37:00,27.2,27.2,30.27,SSW,198,8.0,10.0,100,0.00,,,0.00,VWS V14.01,2013-11-13 13:37:00,
2013-11-13 07:42:00,27.0,27.0,30.27,SSW,202,7.0,10.0,100,0.00,,,0.00,VWS V14.01,2013-11-13 13:42:00,
2013-11-13 07:47:00,27.0,27.0,30.27,SSW,198,6.0,10.0,100,0.00,,,0.00,VWS V14.01,2013-11-13 13:47:00,
2013-11-13 07:52:00,27.0,27.0,30.27,SSW,200,6.0,10.0,100,0.00,,,0.00,VWS V14.01,2013-11-13 13:52:00,
2013-11-13 07:57:00,27.2,27.2,30.27,SSW,193,7.0,10.0,100,0.00,,,0.00,VWS V14.01,2013-11-13 13:57:00,
2013-11-13 08:02:00,27.6,27.6,30.26,SW,219,7.0,10.0,100,0.00,,,0.00,VWS V14.01,2013-11-13 14:02:00,
2013-11-13 08:07:00,28.1,28.1,30.26,SW,216,7.0,8.0,100,0.00,,,0.00,VWS V14.01,2013-11-13 14:07:00,
2013-11-13 08:12:00,28.4,28.4,30.26,SSW,213,7.0,11.0,100,0.00,,,0.00,VWS V14.01,2013-11-13 14:12:00,
2013-11-13 08:17:00,28.8,28.8,30.25,SSW,203,7.0,11.0,100,0.00,,,0.00,VWS V14.01,2013-11-13 14:17:00,
2013-11-13 08:22:00,29.3,29.3,30.25,SSW,212,10.0,12.0,100,0.00,,,0.00,VWS V14.01,2013-11-13 14:22:00,
2013-11-13 08:27:00,29.5,29.5,30.25,SSW,202,8.0,12.0,100,0.00,,,0.00,VWS V14.01,2013-11-13 14:27:00,
2013-11-13 08:32:00,29.8,29.8,30.25,SSW,208,10.0,12.0,100,0.00,,,0.00,VWS V14.01,2013-11-13 14:32:00,
2013-11-13 08:37:00,30.1,30.1,30.25,SSW,202,10.0,10.0,100,0.00,,,0.00,VWS V14.01,2013-11-13 14:37:00,
2013-11-13 08:42:00,30.6,30.6,30.25,SSW,200,8.0,11.0,100,0.00,,,0.00,VWS V14.01,2013-11-13 14:42:00,
2013-11-13 08:47:00,31.0,31.0,30.24,SW,217,10.0,11.0,100,0.00,,,0.00,VWS V14.01,2013-11-13 14:47:00,
2013-11-13 08:52:00,31.6,31.6,30.24,SW,217,9.0,12.0,100,0.00,,,0.00,VWS V14.01,2013-11-13 14:52:00,
2013-11-13 08:57:00,31.9,31.9,30.24,SW,215,11.0,14.0,100,0.00,,,0.00,VWS V14.01,2013-11-13 14:57:00,
2013-11-13 09:02:00,32.2,32.2,30.24,SSW,212,8.0,14.0,100,0.00,,,0.00,VWS V14.01,2013-11-13 15:02:00,
2013-11-13 09:07:00,32.7,32.7,30.24,SW,215,10.0,13.0,100,0.00,,,0.00,VWS V14.01,2013-11-13 15:07:00,
2013-11-13 09:12:00,33.2,32.7,30.24,SW,222,10.0,13.0,98,0.00,,,0.00,VWS V14.01,2013-11-13 15:12:00,
2013-11-13 09:17:00,33.7,32.9,30.22,SSW,213,11.0,13.0,97,0.00,,,0.00,VWS V14.01,2013-11-13 15:17:00,
2013-11-13 09:22:00,34.3,32.8,30.22,SSW,206,10.0,14.0,94,0.00,,,0.00,VWS V14.01,2013-11-13 15:22:00,
2013-11-13 09:27:00,34.7,32.6,30.22,SW,216,13.0,14.0,92,0.00,,,0.00,VWS V14.01,2013-11-13 15:27:00,
2013-11-13 09:32:00,35.3,32.7,30.22,SSW,210,10.0,14.0,90,0.00,,,0.00,VWS V14.01,2013-11-13 15:32:00,
2013-11-13 09:37:00,35.6,32.7,30.22,SSW,203,9.0,13.0,89,0.00,,,0.00,VWS V14.01,2013-11-13 15:37:00,
2013-11-13 09:42:00,36.0,32.8,30.22,SSW,200,10.0,13.0,88,0.00,,,0.00,VWS V14.01,2013-11-13 15:42:00,
2013-11-13 09:47:00,36.9,31.9,30.21,SW,224,10.0,16.0,82,0.00,,,0.00,VWS V14.01,2013-11-13 15:47:00,
2013-11-13 09:52:00,37.5,30.3,30.21,SSW,212,13.0,13.0,75,0.00,,,0.00,VWS V14.01,2013-11-13 15:52:00,
2013-11-13 09:57:00,38.3,30.4,30.21,SW,215,10.0,13.0,73,0.00,,,0.00,VWS V14.01,2013-11-13 15:57:00,
2013-11-13 10:02:00,38.8,29.9,30.20,SSW,199,7.0,13.0,70,0.00,,,0.00,VWS V14.01,2013-11-13 16:02:00,
2013-11-13 10:07:00,39.3,30.0,30.20,SSW,192,10.0,12.0,69,0.00,,,0.00,VWS V14.01,2013-11-13 16:07:00,
2013-11-13 10:12:00,39.9,30.2,30.20,SW,216,10.0,12.0,68,0.00,,,0.00,VWS V14.01,2013-11-13 16:12:00,
2013-11-13 10:17:00,40.3,29.9,30.19,SSW,206,7.0,13.0,66,0.00,,,0.00,VWS V14.01,2013-11-13 16:17:00,
2013-11-13 10:22:00,40.9,29.7,30.19,SSW,210,8.0,12.0,64,0.00,,,0.00,VWS V14.01,2013-11-13 16:22:00,
2013-11-13 10:27:00,41.5,29.1,30.19,SSW,203,10.0,14.0,61,0.00,,,0.00,VWS V14.01,2013-11-13 16:27:00,
2013-11-13 10:32:00,41.8,29.4,30.18,SSW,209,11.0,14.0,61,0.00,,,0.00,VWS V14.01,2013-11-13 16:32:00,
2013-11-13 10:37:00,41.9,28.2,30.18,SW,233,12.0,14.0,58,0.00,,,0.00,VWS V14.01,2013-11-13 16:37:00,
2013-11-13 10:42:00,42.8,28.2,30.18,SW,226,11.0,14.0,56,0.00,,,0.00,VWS V14.01,2013-11-13 16:42:00,
2013-11-13 10:47:00,43.5,28.4,30.17,SW,230,10.0,14.0,55,0.00,,,0.00,VWS V14.01,2013-11-13 16:47:00,
2013-11-13 10:52:00,44.1,28.1,30.17,SW,229,11.0,14.0,53,0.00,,,0.00,VWS V14.01,2013-11-13 16:52:00,
2013-11-13 10:57:00,44.6,28.1,30.17,SW,217,12.0,18.0,52,0.00,,,0.00,VWS V14.01,2013-11-13 16:57:00,
2013-11-13 11:02:00,45.1,28.5,30.16,SW,220,10.0,18.0,52,0.00,,,0.00,VWS V14.01,2013-11-13 17:02:00,
2013-11-13 11:07:00,45.2,27.7,30.16,SW,226,7.0,17.0,50,0.00,,,0.00,VWS V14.01,2013-11-13 17:07:00,
2013-11-13 11:12:00,46.1,28.0,30.16,SSW,195,7.0,17.0,49,0.00,,,0.00,VWS V14.01,2013-11-13 17:12:00,
2013-11-13 11:17:00,46.4,27.8,30.15,SW,233,12.0,17.0,48,0.00,,,0.00,VWS V14.01,2013-11-13 17:17:00,
2013-11-13 11:22:00,46.7,28.1,30.15,SSW,212,7.0,13.0,48,0.00,,,0.00,VWS V14.01,2013-11-13 17:22:00,
2013-11-13 11:27:00,47.1,26.3,30.15,SSW,198,12.0,17.0,44,0.00,,,0.00,VWS V14.01,2013-11-13 17:27:00,
2013-11-13 11:32:00,47.1,26.9,30.14,SSW,206,10.0,17.0,45,0.00,,,0.00,VWS V14.01,2013-11-13 17:32:00,
2013-11-13 11:37:00,47.6,26.8,30.14,SSW,203,12.0,16.0,44,0.00,,,0.00,VWS V14.01,2013-11-13 17:37:00,
2013-11-13 11:42:00,47.9,27.0,30.14,SSW,208,11.0,17.0,44,0.00,,,0.00,VWS V14.01,2013-11-13 17:42:00,
2013-11-13 11:47:00,48.3,26.9,30.13,SSW,213,10.0,17.0,43,0.00,,,0.00,VWS V14.01,2013-11-13 17:47:00,
2013-11-13 11:52:00,49.4,27.3,30.13,SSW,198,9.0,13.0,42,0.00,,,0.00,VWS V14.01,2013-11-13 17:52:00,
2013-11-13 11:57:00,49.8,26.5,30.13,SSW,195,12.0,19.0,40,0.00,,,0.00,VWS V14.01,2013-11-13 17:57:00,
2013-11-13 12:02:00,50.1,27.3,30.11,SSW,213,10.0,19.0,41,0.00,,,0.00,VWS V14.01,2013-11-13 18:02:00,
2013-11-13 12:07:00,50.8,26.8,30.11,SSW,205,12.0,16.0,39,0.00,,,0.00,VWS V14.01,2013-11-13 18:07:00,
2013-11-13 12:12:00,51.6,24.9,30.11,SSW,202,10.0,19.0,35,0.00,,,0.00,VWS V14.01,2013-11-13 18:12:00,
2013-11-13 12:17:00,52.2,24.7,30.09,South,188,11.0,19.0,34,0.00,,,0.00,VWS V14.01,2013-11-13 18:17:00,
2013-11-13 12:22:00,52.5,24.2,30.09,SSW,202,10.0,15.0,33,0.00,,,0.00,VWS V14.01,2013-11-13 18:22:00,
2013-11-13 12:27:00,53.1,24.0,30.09,SSW,205,11.0,17.0,32,0.00,,,0.00,VWS V14.01,2013-11-13 18:27:00,
2013-11-13 12:32:00,52.8,23.8,30.07,SSW,192,10.0,19.0,32,0.00,,,0.00,VWS V14.01,2013-11-13 18:32:00,
2013-11-13 12:37:00,53.2,24.9,30.07,SSE,167,9.0,16.0,33,0.00,,,0.00,VWS V14.01,2013-11-13 18:37:00,
2013-11-13 12:42:00,53.6,23.7,30.07,SSW,198,7.0,18.0,31,0.00,,,0.00,VWS V14.01,2013-11-13 18:42:00,
2013-11-13 12:47:00,53.6,23.7,30.07,South,186,8.0,19.0,31,0.00,,,0.00,VWS V14.01,2013-11-13 18:47:00,
2013-11-13 12:52:00,53.9,24.0,30.07,SW,220,16.0,19.0,31,0.00,,,0.00,VWS V14.01,2013-11-13 18:52:00,
2013-11-13 12:57:00,54.1,23.4,30.07,SW,220,14.0,19.0,30,0.00,,,0.00,VWS V14.01,2013-11-13 18:57:00,
2013-11-13 13:02:00,54.4,24.4,30.06,SW,230,17.0,22.0,31,0.00,,,0.00,VWS V14.01,2013-11-13 19:02:00,
2013-11-13 13:07:00,54.4,22.8,30.06,SW,226,11.0,19.0,29,0.00,,,0.00,VWS V14.01,2013-11-13 19:07:00,
2013-11-13 13:12:00,55.0,21.6,30.06,SW,217,8.0,19.0,27,0.00,,,0.00,VWS V14.01,2013-11-13 19:12:00,
2013-11-13 13:17:00,55.6,23.0,30.05,SSW,205,10.0,19.0,28,0.00,,,0.00,VWS V14.01,2013-11-13 19:17:00,
2013-11-13 13:22:00,55.7,23.1,30.05,SSW,200,14.0,21.0,28,0.00,,,0.00,VWS V14.01,2013-11-13 19:22:00,
2013-11-13 13:27:00,56.2,23.5,30.05,SSW,213,16.0,21.0,28,0.00,,,0.00,VWS V14.01,2013-11-13 19:27:00,
2013-11-13 13:32:00,56.6,22.1,30.03,WSW,239,14.0,21.0,26,0.00,,,0.00,VWS V14.01,2013-11-13 19:32:00,
2013-11-13 13:37:00,57.0,23.4,30.03,SSW,212,10.0,19.0,27,0.00,,,0.00,VWS V14.01,2013-11-13 19:37:00,
2013-11-13 13:42:00,57.6,23.0,30.03,SSW,212,10.0,19.0,26,0.00,,,0.00,VWS V14.01,2013-11-13 19:42:00,
2013-11-13 13:47:00,58.0,23.3,30.02,SSW,212,11.0,19.0,26,0.00,,,0.00,VWS V14.01,2013-11-13 19:47:00,
2013-11-13 13:52:00,58.6,21.9,30.02,SW,223,17.0,19.0,24,0.00,,,0.00,VWS V14.01,2013-11-13 19:52:00,
2013-11-13 13:57:00,59.0,21.3,30.02,SW,216,14.0,20.0,23,0.00,,,0.00,VWS V14.01,2013-11-13 19:57:00,
2013-11-13 14:02:00,59.3,21.5,30.00,SW,224,17.0,20.0,23,0.00,,,0.00,VWS V14.01,2013-11-13 20:02:00,
2013-11-13 14:07:00,59.6,22.8,30.00,SSW,198,14.0,24.0,24,0.00,,,0.00,VWS V14.01,2013-11-13 20:07:00,
2013-11-13 14:12:00,60.1,22.2,30.00,SSW,202,7.0,24.0,23,0.00,,,0.00,VWS V14.01,2013-11-13 20:12:00,
2013-11-13 14:17:00,60.5,21.5,29.99,SSW,205,12.0,24.0,22,0.00,,,0.00,VWS V14.01,2013-11-13 20:17:00,
2013-11-13 14:22:00,61.0,21.9,29.99,SW,216,12.0,17.0,22,0.00,,,0.00,VWS V14.01,2013-11-13 20:22:00,
2013-11-13 14:27:00,61.5,23.4,29.99,SW,223,10.0,17.0,23,0.00,,,0.00,VWS V14.01,2013-11-13 20:27:00,
2013-11-13 14:32:00,62.0,21.6,29.98,SSW,206,10.0,17.0,21,0.00,,,0.00,VWS V14.01,2013-11-13 20:32:00,
2013-11-13 14:37:00,62.3,21.9,29.98,SW,222,11.0,14.0,21,0.00,,,0.00,VWS V14.01,2013-11-13 20:37:00,
2013-11-13 14:42:00,62.4,22.0,29.98,SSW,200,10.0,19.0,21,0.00,,,0.00,VWS V14.01,2013-11-13 20:42:00,
2013-11-13 14:47:00,62.6,23.2,29.96,SSW,210,10.0,19.0,22,0.00,,,0.00,VWS V14.01,2013-11-13 20:47:00,
2013-11-13 14:52:00,62.7,22.2,29.96,South,181,8.0,18.0,21,0.00,,,0.00,VWS V14.01,2013-11-13 20:52:00,
2013-11-13 14:57:00,63.2,20.3,29.96,SW,222,8.0,18.0,19,0.00,,,0.00,VWS V14.01,2013-11-13 20:57:00,
2013-11-13 15:02:00,63.5,22.9,29.95,SSW,198,10.0,21.0,21,0.00,,,0.00,VWS V14.01,2013-11-13 21:02:00,
2013-11-13 15:07:00,63.7,19.4,29.95,SSW,195,11.0,19.0,18,0.00,,,0.00,VWS V14.01,2013-11-13 21:07:00,
2013-11-13 15:12:00,63.7,21.9,29.95,SSW,192,10.0,19.0,20,0.00,,,0.00,VWS V14.01,2013-11-13 21:12:00,
2013-11-13 15:17:00,63.9,20.9,29.95,SSW,205,14.0,19.0,19,0.00,,,0.00,VWS V14.01,2013-11-13 21:17:00,
2013-11-13 15:22:00,63.9,20.9,29.95,South,175,8.0,16.0,19,0.00,,,0.00,VWS V14.01,2013-11-13 21:22:00,
2013-11-13 15:27:00,63.9,22.1,29.95,South,188,6.0,16.0,20,0.00,,,0.00,VWS V14.01,2013-11-13 21:27:00,
2013-11-13 15:32:00,63.9,22.1,29.95,SSW,202,5.0,16.0,20,0.00,,,0.00,VWS V14.01,2013-11-13 21:32:00,
2013-11-13 15:37:00,63.9,22.1,29.95,SSW,206,9.0,13.0,20,0.00,,,0.00,VWS V14.01,2013-11-13 21:37:00,
2013-11-13 15:42:00,63.9,20.9,29.95,SSW,213,10.0,13.0,19,0.00,,,0.00,VWS V14.01,2013-11-13 21:42:00,
2013-11-13 15:47:00,63.7,23.1,29.94,SSW,208,13.0,16.0,21,0.00,,,0.00,VWS V14.01,2013-11-13 21:47:00,
2013-11-13 15:52:00,63.4,21.7,29.94,SSW,195,11.0,17.0,20,0.00,,,0.00,VWS V14.01,2013-11-13 21:52:00,
2013-11-13 15:57:00,63.2,21.5,29.94,SSW,199,12.0,18.0,20,0.00,,,0.00,VWS V14.01,2013-11-13 21:57:00,
2013-11-13 16:02:00,63.1,21.4,29.94,South,188,10.0,18.0,20,0.00,,,0.00,VWS V14.01,2013-11-13 22:02:00,
2013-11-13 16:07:00,63.1,23.7,29.94,SSW,203,12.0,14.0,22,0.00,,,0.00,VWS V14.01,2013-11-13 22:07:00,
2013-11-13 16:12:00,62.9,22.4,29.94,SSW,196,8.0,16.0,21,0.00,,,0.00,VWS V14.01,2013-11-13 22:12:00,
2013-11-13 16:17:00,62.9,21.2,29.94,SSW,195,10.0,16.0,20,0.00,,,0.00,VWS V14.01,2013-11-13 22:17:00,
2013-11-13 16:22:00,62.7,21.1,29.94,SSW,200,10.0,12.0,20,0.00,,,0.00,VWS V14.01,2013-11-13 22:22:00,
2013-11-13 16:27:00,62.6,21.0,29.94,SSW,200,10.0,14.0,20,0.00,,,0.00,VWS V14.01,2013-11-13 22:27:00,
2013-11-13 16:32:00,62.3,19.5,29.93,SSW,209,12.0,17.0,19,0.00,,,0.00,VWS V14.01,2013-11-13 22:32:00,
2013-11-13 16:37:00,62.0,21.6,29.93,SSW,198,10.0,19.0,21,0.00,,,0.00,VWS V14.01,2013-11-13 22:37:00,
2013-11-13 16:42:00,61.6,20.2,29.93,SSW,199,7.0,19.0,20,0.00,,,0.00,VWS V14.01,2013-11-13 22:42:00,
2013-11-13 16:47:00,61.2,21.0,29.94,SSW,196,8.0,19.0,21,0.00,,,0.00,VWS V14.01,2013-11-13 22:47:00,
2013-11-13 16:52:00,60.7,23.7,29.94,SSW,198,10.0,14.0,24,0.00,,,0.00,VWS V14.01,2013-11-13 22:52:00,
2013-11-13 16:57:00,60.2,22.3,29.94,SSW,205,10.0,14.0,23,0.00,,,0.00,VWS V14.01,2013-11-13 22:57:00,
2013-11-13 17:02:00,59.6,23.8,29.94,SSW,196,10.0,14.0,25,0.00,,,0.00,VWS V14.01,2013-11-13 23:02:00,
2013-11-13 17:07:00,58.9,23.2,29.94,SSW,195,11.0,13.0,25,0.00,,,0.00,VWS V14.01,2013-11-13 23:07:00,
2013-11-13 17:12:00,58.3,23.6,29.94,SSW,200,10.0,14.0,26,0.00,,,0.00,VWS V14.01,2013-11-13 23:12:00,
2013-11-13 17:17:00,57.6,23.9,29.94,SSW,196,7.0,14.0,27,0.00,,,0.00,VWS V14.01,2013-11-13 23:17:00,
2013-11-13 17:22:00,57.2,24.4,29.94,SSW,199,12.0,17.0,28,0.00,,,0.00,VWS V14.01,2013-11-13 23:22:00,
2013-11-13 17:27:00,56.9,24.1,29.94,SSW,198,8.0,17.0,28,0.00,,,0.00,VWS V14.01,2013-11-13 23:27:00,
2013-11-13 17:32:00,56.5,23.8,29.94,SSW,193,12.0,17.0,28,0.00,,,0.00,VWS V14.01,2013-11-13 23:32:00,
2013-11-13 17:37:00,56.0,24.2,29.94,SSW,195,13.0,17.0,29,0.00,,,0.00,VWS V14.01,2013-11-13 23:37:00,
2013-11-13 17:42:00,55.7,24.8,29.94,SSW,193,7.0,17.0,30,0.00,,,0.00,VWS V14.01,2013-11-13 23:42:00,
2013-11-13 17:47:00,55.3,25.2,29.95,SSW,192,8.0,17.0,31,0.00,,,0.00,VWS V14.01,2013-11-13 23:47:00,
2013-11-13 17:52:00,55.0,24.9,29.95,SSW,199,7.0,12.0,31,0.00,,,0.00,VWS V14.01,2013-11-13 23:52:00,
2013-11-13 17:57:00,54.5,26.0,29.95,SSW,196,10.0,12.0,33,0.00,,,0.00,VWS V14.01,2013-11-13 23:57:00,
2013-11-13 18:02:00,54.2,25.7,29.95,SSW,196,7.0,12.0,33,0.00,,,0.00,VWS V14.01,2013-11-14 00:02:00,
2013-11-13 18:07:00,53.8,26.8,29.95,SSW,209,10.0,10.0,35,0.00,,,0.00,VWS V14.01,2013-11-14 00:07:00,
2013-11-13 18:12:00,53.6,26.6,29.95,SSW,202,10.0,12.0,35,0.00,,,0.00,VWS V14.01,2013-11-14 00:12:00,
2013-11-13 18:17:00,53.5,27.2,29.96,SSW,199,7.0,12.0,36,0.00,,,0.00,VWS V14.01,2013-11-14 00:17:00,
2013-11-13 18:22:00,53.2,27.0,29.96,SSW,198,7.0,10.0,36,0.00,,,0.00,VWS V14.01,2013-11-14 00:22:00,
2013-11-13 18:27:00,52.8,27.9,29.96,SSW,202,7.0,10.0,38,0.00,,,0.00,VWS V14.01,2013-11-14 00:27:00,
2013-11-13 18:32:00,52.2,28.0,29.97,SSW,200,7.0,10.0,39,0.00,,,0.00,VWS V14.01,2013-11-14 00:32:00,
2013-11-13 18:37:00,51.9,28.4,29.97,SSW,205,6.0,10.0,40,0.00,,,0.00,VWS V14.01,2013-11-14 00:37:00,
2013-11-13 18:42:00,51.6,27.5,29.97,SSW,205,6.0,10.0,39,0.00,,,0.00,VWS V14.01,2013-11-14 00:42:00,
2013-11-13 18:47:00,51.3,27.8,29.97,SSW,200,5.0,10.0,40,0.00,,,0.00,VWS V14.01,2013-11-14 00:47:00,
2013-11-13 18:52:00,51.0,27.5,29.97,SSW,192,2.0,7.0,40,0.00,,,0.00,VWS V14.01,2013-11-14 00:52:00,
2013-11-13 18:57:00,50.7,28.5,29.97,SSW,196,5.0,8.0,42,0.00,,,0.00,VWS V14.01,2013-11-14 00:57:00,
2013-11-13 19:02:00,50.5,28.3,29.96,SSW,199,7.0,8.0,42,0.00,,,0.00,VWS V14.01,2013-11-14 01:02:00,
2013-11-13 19:07:00,50.2,28.6,29.96,South,189,6.0,8.0,43,0.00,,,0.00,VWS V14.01,2013-11-14 01:07:00,
2013-11-13 19:12:00,50.1,27.3,29.96,South,191,5.0,8.0,41,0.00,,,0.00,VWS V14.01,2013-11-14 01:12:00,
2013-11-13 19:17:00,49.8,28.8,29.97,SSW,193,4.0,8.0,44,0.00,,,0.00,VWS V14.01,2013-11-14 01:17:00,
2013-11-13 19:22:00,49.5,28.5,29.97,SSW,203,5.0,7.0,44,0.00,,,0.00,VWS V14.01,2013-11-14 01:22:00,
2013-11-13 19:27:00,49.2,28.2,29.97,SSW,203,5.0,7.0,44,0.00,,,0.00,VWS V14.01,2013-11-14 01:27:00,
2013-11-13 19:32:00,48.9,28.0,29.97,SSW,203,5.0,7.0,44,0.00,,,0.00,VWS V14.01,2013-11-14 01:32:00,
2013-11-13 19:37:00,48.6,28.2,29.97,SSW,203,2.0,7.0,45,0.00,,,0.00,VWS V14.01,2013-11-14 01:37:00,
2013-11-13 19:42:00,48.5,29.2,29.97,SSW,203,4.0,7.0,47,0.00,,,0.00,VWS V14.01,2013-11-14 01:42:00,
2013-11-13 19:47:00,48.3,28.0,29.97,SSW,203,3.0,7.0,45,0.00,,,0.00,VWS V14.01,2013-11-14 01:47:00,
2013-11-13 19:52:00,48.2,28.4,29.97,SSW,203,2.0,5.0,46,0.00,,,0.00,VWS V14.01,2013-11-14 01:52:00,
2013-11-13 19:57:00,47.9,28.7,29.97,SSW,203,0.0,5.0,47,0.00,,,0.00,VWS V14.01,2013-11-14 01:57:00,
2013-11-13 20:02:00,47.6,27.9,29.97,SSW,203,0.0,5.0,46,0.00,,,0.00,VWS V14.01,2013-11-14 02:02:00,
2013-11-13 20:07:00,47.4,28.2,29.97,SSW,203,0.0,0.0,47,0.00,,,0.00,VWS V14.01,2013-11-14 02:07:00,
2013-11-13 20:12:00,47.3,28.1,29.97,SSW,203,0.0,0.0,47,0.00,,,0.00,VWS V14.01,2013-11-14 02:12:00,
2013-11-13 20:17:00,47.3,28.6,29.96,SSW,203,0.0,0.0,48,0.00,,,0.00,VWS V14.01,2013-11-14 02:17:00,
2013-11-13 20:22:00,47.1,27.9,29.96,SSW,203,0.0,0.0,47,0.00,,,0.00,VWS V14.01,2013-11-14 02:22:00,
2013-11-13 20:27:00,47.3,28.6,29.96,SSW,203,2.0,4.0,48,0.00,,,0.00,VWS V14.01,2013-11-14 02:27:00,
2013-11-13 20:32:00,47.1,28.9,29.95,SSW,203,3.0,4.0,49,0.00,,,0.00,VWS V14.01,2013-11-14 02:32:00,
2013-11-13 20:37:00,47.0,29.3,29.95,SSW,203,0.0,3.0,50,0.00,,,0.00,VWS V14.01,2013-11-14 02:37:00,
2013-11-13 20:42:00,47.1,28.4,29.95,SSW,203,0.0,3.0,48,0.00,,,0.00,VWS V14.01,2013-11-14 02:42:00,
2013-11-13 20:47:00,47.0,28.9,29.94,SSW,203,0.0,3.0,49,0.00,,,0.00,VWS V14.01,2013-11-14 02:47:00,
2013-11-13 20:52:00,47.0,29.3,29.94,SSW,203,2.0,6.0,50,0.00,,,0.00,VWS V14.01,2013-11-14 02:52:00,
2013-11-13 20:57:00,47.1,29.9,29.94,SSW,203,2.0,6.0,51,0.00,,,0.00,VWS V14.01,2013-11-14 02:57:00,
2013-11-13 21:02:00,47.0,29.3,29.94,SSW,203,3.0,6.0,50,0.00,,,0.00,VWS V14.01,2013-11-14 03:02:00,
2013-11-13 21:07:00,47.0,29.3,29.94,SSW,203,2.0,5.0,50,0.00,,,0.00,VWS V14.01,2013-11-14 03:07:00,
2013-11-13 21:12:00,47.0,29.3,29.94,SSW,203,2.0,5.0,50,0.00,,,0.00,VWS V14.01,2013-11-14 03:12:00,
2013-11-13 21:17:00,46.8,29.6,29.92,SSW,203,2.0,5.0,51,0.00,,,0.00,VWS V14.01,2013-11-14 03:17:00,
2013-11-13 21:22:00,46.5,29.4,29.92,SSW,203,3.0,5.0,51,0.00,,,0.00,VWS V14.01,2013-11-14 03:22:00,
2013-11-13 21:27:00,46.4,29.3,29.92,SSW,203,2.0,5.0,51,0.00,,,0.00,VWS V14.01,2013-11-14 03:27:00,
2013-11-13 21:32:00,46.2,29.1,29.92,SSW,203,6.0,6.0,51,0.00,,,0.00,VWS V14.01,2013-11-14 03:32:00,
2013-11-13 21:37:00,46.2,29.6,29.92,SSW,203,2.0,7.0,52,0.00,,,0.00,VWS V14.01,2013-11-14 03:37:00,
2013-11-13 21:42:00,46.4,29.3,29.92,SSW,205,6.0,7.0,51,0.00,,,0.00,VWS V14.01,2013-11-14 03:42:00,
2013-11-13 21:47:00,46.5,30.3,29.92,SSW,205,5.0,7.0,53,0.00,,,0.00,VWS V14.01,2013-11-14 03:47:00,
2013-11-13 21:52:00,46.7,29.5,29.92,SSW,205,5.0,6.0,51,0.00,,,0.00,VWS V14.01,2013-11-14 03:52:00,
2013-11-13 21:57:00,46.8,31.0,29.92,SSW,205,6.0,7.0,54,0.00,,,0.00,VWS V14.01,2013-11-14 03:57:00,
2013-11-13 22:02:00,47.1,29.4,29.91,SSW,212,5.0,8.0,50,0.00,,,0.00,VWS V14.01,2013-11-14 04:02:00,
2013-11-13 22:07:00,47.1,30.9,29.91,SSW,206,5.0,7.0,53,0.00,,,0.00,VWS V14.01,2013-11-14 04:07:00,
2013-11-13 22:12:00,46.7,30.5,29.91,SSW,206,7.0,7.0,53,0.00,,,0.00,VWS V14.01,2013-11-14 04:12:00,
2013-11-13 22:17:00,46.0,30.8,29.89,SSW,206,6.0,7.0,55,0.00,,,0.00,VWS V14.01,2013-11-14 04:17:00,
2013-11-13 22:22:00,45.5,31.6,29.89,SSW,206,6.0,7.0,58,0.00,,,0.00,VWS V14.01,2013-11-14 04:22:00,
2013-11-13 22:27:00,45.7,31.4,29.89,SSW,199,10.0,11.0,57,0.00,,,0.00,VWS V14.01,2013-11-14 04:27:00,
2013-11-13 22:32:00,45.8,31.0,29.88,SSW,199,6.0,11.0,56,0.00,,,0.00,VWS V14.01,2013-11-14 04:32:00,
2013-11-13 22:37:00,45.7,32.2,29.88,SSW,199,5.0,8.0,59,0.00,,,0.00,VWS V14.01,2013-11-14 04:37:00,
2013-11-13 22:42:00,45.4,31.5,29.88,SSW,199,5.0,8.0,58,0.00,,,0.00,VWS V14.01,2013-11-14 04:42:00,
2013-11-13 22:47:00,44.9,32.3,29.87,SSW,199,5.0,8.0,61,0.00,,,0.00,VWS V14.01,2013-11-14 04:47:00,
2013-11-13 22:52:00,44.5,32.7,29.87,SSW,199,4.0,5.0,63,0.00,,,0.00,VWS V14.01,2013-11-14 04:52:00,
2013-11-13 22:57:00,44.3,32.5,29.87,SSW,199,5.0,6.0,63,0.00,,,0.00,VWS V14.01,2013-11-14 04:57:00,
2013-11-13 23:01:00,44.2,32.8,29.87,SSW,199,5.0,6.0,64,0.00,,,0.00,VWS V14.01,2013-11-14 05:01:00,
2013-11-13 23:06:00,44.3,33.7,29.87,SSW,199,7.0,7.0,66,0.00,,,0.00,VWS V14.01,2013-11-14 05:06:00,
2013-11-13 23:11:00,44.3,34.0,29.87,SSW,199,5.0,7.0,67,0.00,,,0.00,VWS V14.01,2013-11-14 05:11:00,
2013-11-13 23:16:00,44.3,34.4,29.87,SSW,199,6.0,7.0,68,0.00,,,0.00,VWS V14.01,2013-11-14 05:16:00,
2013-11-13 23:21:00,44.2,34.3,29.85,SSW,199,5.0,7.0,68,0.00,,,0.00,VWS V14.01,2013-11-14 05:21:00,
2013-11-13 23:26:00,44.2,34.7,29.85,SSW,199,7.0,7.0,69,0.00,,,0.00,VWS V14.01,2013-11-14 05:26:00,
2013-11-13 23:31:00,44.3,34.8,29.85,SSW,200,7.0,7.0,69,0.00,,,0.00,VWS V14.01,2013-11-14 05:31:00,
2013-11-13 23:36:00,44.6,34.7,29.84,SSW,200,5.0,7.0,68,0.00,,,0.00,VWS V14.01,2013-11-14 05:36:00,
2013-11-13 23:41:00,44.2,35.0,29.84,SSW,202,5.0,7.0,70,0.00,,,0.00,VWS V14.01,2013-11-14 05:41:00,
2013-11-13 23:46:00,43.8,35.7,29.84,SSW,213,5.0,7.0,73,0.00,,,0.00,VWS V14.01,2013-11-14 05:46:00,
2013-11-13 23:51:00,43.8,34.7,29.83,SSW,213,5.0,6.0,70,0.00,,,0.00,VWS V14.01,2013-11-14 05:51:00,
2013-11-13 23:56:00,43.9,35.1,29.83,SSW,210,7.0,8.0,71,0.00,,,0.00,VWS V14.01,2013-11-14 05:56:00,